Weather Roundup
Issued by NWS Chicago, IL

Home | Current Version | Previous Version | Text Only | Print | Product List | Glossary On
Versions: 1 2 3 4 5 6 7 8 9 10 11 12 13 14 15 16 17 18 19 20 21 22 23 24 25 26 27 28 29 30 31 32 33 34 35 36 37 38 39 40 41 42 43 44 45 46 47 48 49 50
000
NZUS59 KLOT 220510
HRRLOT

CHICAGO AREA WEATHER ROUNDUP
NATIONAL WEATHER SERVICE CHICAGO/ROMEOVILLE IL
1200 AM CDT FRI AUG 22 2014

NOTE: "FAIR" INDICATES FEW OR NO CLOUDS BELOW 12,000 FEET WITH NO
SIGNIFICANT WEATHER AND/OR OBSTRUCTIONS TO VISIBILITY.

* THESE STATIONS ARE NOT UNDER NWS QUALITY CONTROL. THEY ALSO MAY NOT
  REPORT WEATHER SUCH AS PRECIPITATION OR FOG.

ILZ005-006-012>014-019>023-220600-
NORTHEAST ILLINOIS

CITY           SKY/WX    TMP DP  RH WIND       PRES   REMARKS
OHARE          CLOUDY    75  70  84 SE5       29.94F
MIDWAY         CLOUDY    77  73  87 CALM      29.95S
AURORA         CLOUDY    75  72  90 E6        29.94F FOG
LANSING*       CLOUDY    73  71  93 S3        29.96S
JOLIET*        CLOUDY    73  71  91 CALM      29.95F
WAUKEGAN       FOG       71  70  96 E3        29.95S VSB 1/4
DUPAGE AIRPORT MOCLDY    75  72  90 SE6       29.92F
WHEELING       CLOUDY    75  72  90 CALM      29.95F FOG
KANKAKEE*      DRIZZLE   73  72  95 E3        29.97R
MORRIS*        CLOUDY    74  74 100 CALM      29.93F
LEWIS AIRPORT* CLOUDY    73  72  98 SE3       29.95F
NORTHERLY IS     N/A     74  70  87 NW8         N/A
$$

WIZ051-052-058>065-066-070>072-220600-
SOUTHEAST WISCONSIN

CITY           SKY/WX    TMP DP  RH WIND       PRES   REMARKS
MILWAUKEE      FOG       70  68  93 SE6       29.97R VSB 1/2
KENOSHA*       CLOUDY    71  71 100 E3        29.96S FOG
RACINE*        FOG       71  69  93 SE5       29.97S VSB 3/4
BURLINGTON     CLOUDY    69  69  99 CALM      29.96R FOG
WAUKESHA       CLOUDY    68  68 100 CALM      29.97S FOG
WEST BEND      CLOUDY    68  64  88 CALM      29.97R FOG
$$

INZ001>003-010>013-019-020-220600-
NORTHWEST INDIANA

CITY           SKY/WX    TMP DP  RH WIND       PRES   REMARKS
GARY*          DRIZZLE   74  72  93 SE3       29.95F
MICHIGAN CITY* NOT AVBL
RENSSELAER*    NOT AVBL
VALPARAISO     CLOUDY    71  69  93 S3        29.98R
$$

LMZ740>746-220600-
SOUTHERN LAKE MICHIGAN

STATION/POSITION TIME  SKY/WX   TEMP WIND        PRES    VSBY
                                AIR  DIR/SP/G
                 (UTC)          (F)  (DEG/KT/KT) (MB)    (MI)
HARRISON CRIB    0500            75  180/  9/ 10   N/A
BURNHAM HARBOR   0500            74  170/  2/ 11   N/A
CALUMET HARBOR   0500            74  160/  3/  4 1012.9F
BURNS HARBOR     0400            74  180/  5/  8   N/A
MICHIGAN CITY    0500            73  140/ 10/ 14   N/A
$$

ABBREVIATIONS USED IN REMARKS
   TC - TEMPERATURE IN CELSIUS
  WCI - WIND CHILL INDEX
   HX - HEAT INDEX
  VSB - VISIBILITY
$$



USA.gov is the U.S. government's official web portal to all federal, state and local government web resources and services.